Overview Statistics Trail Chart Weather Telemetry Raw packets
 

This is the latest recevied weather packets stored in our database for station/object KD5GAT-51. If no packets are shown the sender has not sent any weather packets the latest 10 day(s).

<< 1 2 3 4 5 >>
Time Temp. Humidity Pressure Rain* Wind** Luminosity Snow
1788477196 40° C 34% 1011.3 hPa - - - -
1788476296 40.56° C 35% 1011.3 hPa - - - -
1788475396 40.56° C 33% 1011.2 hPa - - - -
1788474495 41.11° C 32% 1011.3 hPa - - - -
1788473595 41.11° C 34% 1011.3 hPa - - - -
1788472695 41.67° C 33% 1011.3 hPa - - - -
1788471813 41.11° C 35% 1011.5 hPa - - - -
1788470895 40.56° C 35% 1011.9 hPa - - - -
1788469995 40° C 38% 1011.9 hPa - - - -
1788469094 41.67° C 34% 1012.2 hPa - - - -
1788468194 43.33° C 32% 1012.4 hPa - - - -
1788467294 42.78° C 34% 1012.6 hPa - - - -
1788466394 42.22° C 35% 1012.8 hPa - - - -
1788465494 41.67° C 37% 1012.9 hPa - - - -
1788464594 41.11° C 38% 1013 hPa - - - -
1788463693 40.56° C 40% 1013.4 hPa - - - -
1788462793 40.56° C 41% 1013.7 hPa - - - -
1788461900 40.56° C 42% 1014 hPa - - - -
1788461000 40° C 44% 1014.3 hPa - - - -
1788460100 40° C 48% 1014.6 hPa - - - -
1788459200 38.89° C 48% 1014.7 hPa - - - -
1788458299 38.89° C 53% 1015 hPa - - - -
1788457399 38.33° C 59% 1015.3 hPa - - - -
1788456499 38.33° C 62% 1015.5 hPa - - - -
1788455599 37.78° C 74% 1015.8 hPa - - - -

* Rain since midnight (hover to see other rain measurements)
** Current wind speed in m/s (hover to see current wind gust speed)